• en Suisse
  • Liste des pays
  • À 7 jours
  • Température de l'eau
  • Carte satellitaire
  • Carte météo
  • Widgets météo
  • user-avatar
    Se connecter

    Météo par heure à Maidstone

    Ce jour, 22 Juin, Vendredi

    Heure Température Précipitation Vent Pression Humidité
    00:00 +11°C° 0 mm 3 m/s 770 mmHg 77%
    01:00 +11°C° 0 mm 3 m/s 770 mmHg 78%
    02:00 +10°C° 0 mm 3 m/s 770 mmHg 79%
    03:00 +10°C° 0 mm 3 m/s 770 mmHg 80%
    04:00 +10°C° 0 mm 3 m/s 770 mmHg 78%
    05:00 +11°C° 0 mm 4 m/s 770 mmHg 77%
    06:00 +12°C° 0 mm 4 m/s 770 mmHg 75%
    07:00 +13°C° 0 mm 4 m/s 770 mmHg 70%
    08:00 +15°C° 0 mm 4 m/s 770 mmHg 65%
    09:00 +17°C° 0 mm 3 m/s 770 mmHg 59%
    10:00 +18°C° 0 mm 3 m/s 770 mmHg 56%
    11:00 +19°C° 0 mm 3 m/s 770 mmHg 52%
    12:00 +20°C° 0 mm 3 m/s 770 mmHg 49%
    13:00 +20°C° 0 mm 3 m/s 770 mmHg 48%
    14:00 +20°C° 0 mm 3 m/s 770 mmHg 47%
    15:00 +20°C° 0 mm 2 m/s 770 mmHg 47%
    16:00 +20°C° 0 mm 3 m/s 770 mmHg 50%
    17:00 +20°C° 0 mm 3 m/s 770 mmHg 53%
    18:00 +19°C° 0 mm 3 m/s 770 mmHg 57%
    19:00 +18°C° 0 mm 3 m/s 770 mmHg 63%
    20:00 +16°C° 0 mm 2 m/s 770 mmHg 70%
    21:00 +14°C° 0 mm 2 m/s 770 mmHg 76%
    22:00 +13°C° 0 mm 2 m/s 770 mmHg 79%
    23:00 +13°C° 0 mm 2 m/s 770 mmHg 81%

    Demain, 23 Juin, Samedi

    Heure Température Précipitation Vent Pression Humidité
    00:00 +12°C° 0 mm 2 m/s 770 mmHg 84%
    01:00 +12°C° 0 mm 2 m/s 770 mmHg 84%
    02:00 +12°C° 0 mm 2 m/s 770 mmHg 84%
    03:00 +12°C° 0 mm 2 m/s 770 mmHg 85%
    04:00 +13°C° 0 mm 2 m/s 770 mmHg 82%
    05:00 +12°C° 0 mm 3 m/s 770 mmHg 79%
    06:00 +13°C° 0 mm 3 m/s 770 mmHg 76%
    07:00 +16°C° 0 mm 3 m/s 770 mmHg 69%
    08:00 +17°C° 0 mm 3 m/s 770 mmHg 62%
    09:00 +19°C° 0 mm 3 m/s 770 mmHg 55%
    10:00 +20°C° 0 mm 3 m/s 769 mmHg 52%
    11:00 +21°C° 0 mm 3 m/s 769 mmHg 48%
    12:00 +22°C° 0 mm 3 m/s 769 mmHg 45%
    13:00 +22°C° 0 mm 3 m/s 769 mmHg 46%
    14:00 +22°C° 0 mm 3 m/s 768 mmHg 47%
    15:00 +24°C° 0 mm 3 m/s 768 mmHg 48%
    16:00 +22°C° 0 mm 3 m/s 768 mmHg 52%
    17:00 +22°C° 0 mm 3 m/s 767 mmHg 56%
    18:00 +21°C° 0 mm 3 m/s 767 mmHg 61%
    19:00 +20°C° 0 mm 3 m/s 767 mmHg 64%
    20:00 +18°C° 0 mm 3 m/s 768 mmHg 68%
    21:00 +17°C° 0 mm 3 m/s 768 mmHg 72%
    22:00 +16°C° 0 mm 3 m/s 768 mmHg 75%
    23:00 +15°C° 0 mm 2 m/s 767 mmHg 78%

    Après-demain, 24 Juin, Dimanche

    Heure Température Précipitation Vent Pression Humidité
    00:00 +14°C° 0 mm 2 m/s 767 mmHg 81%
    01:00 +13°C° 0 mm 2 m/s 767 mmHg 82%
    02:00 +13°C° 0 mm 2 m/s 767 mmHg 82%
    03:00 +13°C° 0 mm 2 m/s 767 mmHg 82%
    04:00 +13°C° 0 mm 2 m/s 767 mmHg 79%
    05:00 +13°C° 0 mm 3 m/s 767 mmHg 76%
    06:00 +14°C° 0 mm 3 m/s 767 mmHg 74%
    07:00 +16°C° 0 mm 3 m/s 767 mmHg 69%
    08:00 +17°C° 0 mm 3 m/s 767 mmHg 65%
    09:00 +19°C° 0 mm 3 m/s 767 mmHg 60%
    10:00 +19°C° 0 mm 3 m/s 767 mmHg 59%
    11:00 +20°C° 0 mm 3 m/s 767 mmHg 57%
    12:00 +21°C° 0 mm 4 m/s 767 mmHg 55%
    13:00 +21°C° 0 mm 4 m/s 767 mmHg 56%
    14:00 +21°C° 0 mm 4 m/s 767 mmHg 58%
    15:00 +21°C° 0 mm 4 m/s 767 mmHg 59%
    16:00 +21°C° 0 mm 4 m/s 767 mmHg 61%
    17:00 +20°C° 0 mm 4 m/s 767 mmHg 64%
    18:00 +20°C° 0 mm 4 m/s 766 mmHg 67%
    19:00 +18°C° 0 mm 3 m/s 767 mmHg 72%
    20:00 +16°C° 0 mm 3 m/s 767 mmHg 76%
    21:00 +15°C° 0 mm 2 m/s 767 mmHg 81%
    22:00 +14°C° 0 mm 2 m/s 767 mmHg 81%
    23:00 +14°C° 0 mm 2 m/s 767 mmHg 82%

    25 Juin, Lundi

    Heure Température Précipitation Vent Pression Humidité
    00:00 +14°C° 0 mm 1 m/s 767 mmHg 83%
    01:00 +13°C° 0 mm 2 m/s 767 mmHg 83%
    02:00 +13°C° 0 mm 2 m/s 767 mmHg 84%
    03:00 +13°C° 0 mm 2 m/s 767 mmHg 84%
    04:00 +14°C° 0 mm 2 m/s 767 mmHg 82%
    05:00 +15°C° 0 mm 2 m/s 767 mmHg 80%
    06:00 +16°C° 0 mm 2 m/s 767 mmHg 78%
    07:00 +17°C° 0 mm 3 m/s 767 mmHg 73%
    08:00 +19°C° 0 mm 3 m/s 767 mmHg 69%
    09:00 +20°C° 0 mm 3 m/s 767 mmHg 65%
    10:00 +21°C° 0 mm 3 m/s 767 mmHg 62%
    11:00 +22°C° 0 mm 4 m/s 767 mmHg 60%
    12:00 +23°C° 0 mm 4 m/s 767 mmHg 57%
    13:00 +23°C° 0 mm 4 m/s 767 mmHg 57%
    14:00 +23°C° 0 mm 4 m/s 766 mmHg 56%
    15:00 +23°C° 0 mm 4 m/s 766 mmHg 56%
    16:00 +22°C° 0 mm 4 m/s 766 mmHg 59%
    17:00 +22°C° 0 mm 4 m/s 766 mmHg 62%
    18:00 +21°C° 0 mm 4 m/s 766 mmHg 65%
    19:00 +19°C° 0 mm 4 m/s 766 mmHg 70%
    20:00 +17°C° 0 mm 3 m/s 766 mmHg 74%
    21:00 +14°C° 0 mm 3 m/s 767 mmHg 79%
    22:00 +14°C° 0 mm 3 m/s 767 mmHg 81%
    23:00 +13°C° 0 mm 3 m/s 767 mmHg 82%

    26 Juin, Mardi

    Heure Température Précipitation Vent Pression Humidité
    00:00 +13°C° 0 mm 3 m/s 767 mmHg 84%
    01:00 +12°C° 0 mm 3 m/s 766 mmHg 85%
    02:00 +12°C° 0 mm 3 m/s 766 mmHg 86%
    03:00 +12°C° 0 mm 3 m/s 766 mmHg 87%
    04:00 +13°C° 0 mm 4 m/s 766 mmHg 85%
    05:00 +13°C° 0 mm 4 m/s 766 mmHg 83%
    06:00 +14°C° 0 mm 4 m/s 766 mmHg 80%
    07:00 +17°C° 0 mm 4 m/s 766 mmHg 73%
    08:00 +18°C° 0 mm 4 m/s 766 mmHg 66%
    09:00 +20°C° 0 mm 5 m/s 766 mmHg 59%
    10:00 +21°C° 0 mm 5 m/s 766 mmHg 55%
    11:00 +21°C° 0 mm 5 m/s 766 mmHg 51%
    12:00 +22°C° 0 mm 6 m/s 766 mmHg 47%
    13:00 +22°C° 0 mm 6 m/s 766 mmHg 47%
    14:00 +22°C° 0 mm 6 m/s 765 mmHg 47%
    15:00 +22°C° 0 mm 6 m/s 765 mmHg 47%
    16:00 +21°C° 0 mm 6 m/s 765 mmHg 50%
    17:00 +20°C° 0 mm 6 m/s 765 mmHg 54%
    18:00 +19°C° 0 mm 6 m/s 765 mmHg 57%
    19:00 +17°C° 0 mm 6 m/s 765 mmHg 63%
    20:00 +15°C° 0 mm 5 m/s 765 mmHg 68%
    21:00 +14°C° 0 mm 5 m/s 765 mmHg 74%
    22:00 +13°C° 0 mm 5 m/s 765 mmHg 77%
    23:00 +13°C° 0 mm 5 m/s 765 mmHg 81%

    27 Juin, Mercredi

    Heure Température Précipitation Vent Pression Humidité
    00:00 +12°C° 0 mm 4 m/s 765 mmHg 84%
    01:00 +12°C° 0 mm 4 m/s 765 mmHg 86%
    02:00 +12°C° 0 mm 4 m/s 765 mmHg 87%
    03:00 +12°C° 0 mm 4 m/s 765 mmHg 89%
    04:00 +13°C° 0 mm 4 m/s 765 mmHg 87%
    05:00 +14°C° 0 mm 4 m/s 765 mmHg 86%
    06:00 +15°C° 0 mm 4 m/s 765 mmHg 84%
    07:00 +17°C° 0 mm 5 m/s 765 mmHg 80%
    08:00 +20°C° 0 mm 5 m/s 765 mmHg 75%
    09:00 +22°C° 0 mm 5 m/s 765 mmHg 71%
    10:00 +23°C° 0 mm 5 m/s 764 mmHg 67%
    11:00 +25°C° 0 mm 5 m/s 764 mmHg 63%
    12:00 +26°C° 0 mm 5 m/s 764 mmHg 59%
    13:00 +26°C° 0 mm 5 m/s 764 mmHg 59%
    14:00 +26°C° 0 mm 5 m/s 764 mmHg 58%
    15:00 +26°C° 0 mm 6 m/s 764 mmHg 58%
    16:00 +24°C° 0 mm 6 m/s 764 mmHg 61%
    17:00 +24°C° 0 mm 6 m/s 764 mmHg 64%
    18:00 +23°C° 0 mm 6 m/s 764 mmHg 67%
    19:00 +21°C° 0 mm 6 m/s 764 mmHg 71%
    20:00 +20°C° 0 mm 5 m/s 764 mmHg 75%
    21:00 +19°C° 0 mm 5 m/s 764 mmHg 78%
    22:00 +17°C° 0 mm 5 m/s 764 mmHg 80%
    23:00 +17°C° 0 mm 5 m/s 764 mmHg 81%
    Voir plus